Regional Weather Roundup
Issued by NWS Northern Indiana

Home | Current Version | Previous Version | Text Only | Print | Product List | Glossary Off
Versions: 1 2 3 4 5 6 7 8 9 10 11 12 13 14 15 16 17 18 19 20 21 22 23 24 25 26 27 28 29 30 31 32 33 34 35 36 37 38 39 40 41 42 43 44 45 46 47 48 49 50

000
ASUS43 KIWX 151200
RWRIWX

KIWX WEATHER ROUNDUP
NATIONAL WEATHER SERVICE NORTHERN INDIANA
700 AM EST FRI DEC 15 2017

NOTE: "FAIR" INDICATES FEW OR NO CLOUDS BELOW 12,000 FEET WITH NO
SIGNIFICANT WEATHER AND/OR OBSTRUCTIONS TO VISIBILITY.

* THESE STATIONS ARE NOT UNDER NWS QUALITY CONTROL. THEY ALSO MAY NOT
  REPORT WEATHER SUCH AS PRECIPITATION OR FOG.

INZ001>027-151300-
NORTHERN INDIANA

CITY           SKY/WX    TMP DP  RH WIND       PRES   REMARKS
GARY*          CLOUDY    27  16  63 W13       29.94F WCI  16
MICHIGAN CITY* CLOUDY    23  16  74 SW12      29.93S WCI  12
LAPORTE*       CLEAR     21  15  76 SW10      29.93S WCI  10
KNOX*          CLOUDY    23  16  74 SW12      29.94F WCI  12
SOUTH BEND     CLOUDY    20  13  74 SW13      29.92F WCI   7
6HR MIN TEMP:  12; 6HR MAX TEMP:  20;

ELKHART*       CLOUDY    21  12  68 SW8       29.91  WCI  12
GOSHEN         CLOUDY    21  13  71 SW10      29.92F WCI  10
6HR MIN TEMP:  17; 6HR MAX TEMP:  21;

MONTICELLO*    CLOUDY    23  15  73 SW7       29.97F WCI  14
6HR MIN TEMP:  16; 6HR MAX TEMP:  23;

WARSAW*        CLOUDY    21  14  73 SW5       29.94F WCI  15
AUBURN*        CLOUDY    25  16  68 SW7       29.95S WCI  17
FORT WAYNE     CLOUDY    24  18  77 SW10      29.96S WCI  14
6HR MIN TEMP:  21; 6HR MAX TEMP:  24; 6HR PCP: TRACE;

PERU/GRISSOM   CLOUDY    23  17  79 SW8       29.96F WCI  14
6HR MIN TEMP:  20; 6HR MAX TEMP:  23;


$$
INZ028>050-151300-
CENTRAL INDIANA

CITY           SKY/WX    TMP DP  RH WIND       PRES   REMARKS
LAFAYETTE      CLOUDY    23  18  81 W5        30.00F WCI  17
6HR MIN TEMP:  19; 6HR MAX TEMP:  23;

KOKOMO*        CLOUDY    24  18  77 SW9       29.98S WCI  14
6HR MIN TEMP:  22; 6HR MAX TEMP:  24;

MUNCIE*        CLOUDY    25  14  63 SW12G17   29.98F WCI  14
6HR MIN TEMP:  22; 6HR MAX TEMP:  25;

INDIANAPOLIS   CLOUDY    26  16  65 SW9       30.01S WCI  17
6HR MIN TEMP:  23; 6HR MAX TEMP:  26;


$$
MIZ043>046-050>051-056>058-064>065-071>073-077>080-151300-
SOUTHWEST LOWER MICHIGAN

CITY           SKY/WX    TMP DP  RH WIND       PRES   REMARKS
BATTLE CREEK   CLOUDY    20  12  71 SW14      29.86F WCI   7
6HR MIN TEMP:  19; 6HR MAX TEMP:  20;

BENTON HARBOR  CLOUDY    23  14  68 S8        29.88F WCI  14
6HR MIN TEMP:  22; 6HR MAX TEMP:  23;

COLDWATER*     CLOUDY    20  13  72 SW8       29.90F WCI  11
6HR MIN TEMP:  16; 6HR MAX TEMP:  20;

HILLSDALE*     CLOUDY    19  12  73 S7        29.88F WCI  10
HOLLAND        CLOUDY    28  20  71 SW20      29.84F WCI  15
6HR MIN TEMP:  21; 6HR MAX TEMP:  28;

GRAND RAPIDS   CLOUDY    23  16  74 S14       29.83F WCI  11
6HR MIN TEMP:  19; 6HR MAX TEMP:  23;

KALAMAZOO      CLOUDY    21  12  68 SW12      29.88F WCI   9
6HR MIN TEMP:  19; 6HR MAX TEMP:  21;

STURGIS*       CLOUDY    21  14  74 SW9       29.89F WCI  11
6HR MIN TEMP:  13; 6HR MAX TEMP:  21;

THREE RIVERS*  CLOUDY    21  13  73 SW7       29.90F WCI  12
6HR MIN TEMP:  15; 6HR MAX TEMP:  21;


$$
OHZ001>008-015>018-024>025-151300-
NORTHWEST OHIO

CITY           SKY/WX    TMP DP  RH WIND       PRES   REMARKS
DEFIANCE       CLOUDY    22  13  68 S9        29.95F WCI  12
6HR MIN TEMP:  17; 6HR MAX TEMP:  22;

FINDLAY        CLOUDY    22  11  62 S12       29.96F WCI  10
6HR MIN TEMP:  11; 6HR MAX TEMP:  22;

TOLEDO EXPRESS CLOUDY    22  13  68 SW12      29.94F WCI  10
6HR MIN TEMP:  15; 6HR MAX TEMP:  22;

TOLEDO METCALF CLOUDY    21  12  68 S10       29.97F WCI  10
6HR MIN TEMP:   8; 6HR MAX TEMP:  21;

LIMA           CLOUDY    21  13  71 S9        29.96F WCI  11
6HR MIN TEMP:  15; 6HR MAX TEMP:  21;


$$
AND FOR LAKE MICHIGAN COASTAL AND OPEN LAKE BUOY OBSERVATIONS

STATION/POSITION TEMP    WIND        PRES    VSBY  WAVE
                 AIR SEA DIR/SP/G                  HT/PER
                 (F)     (DEG/KT/KT) (MB)    (MI)  (FT/S)
CALUMET HARBOR    24     220/  8/ 14 1012.8S
MICHIGAN CITY     24     200/ 16/ 19   N/A
BURNS HARBOR      25     230/ 12/ 18 1013.9F
SAINT JOSEPH      29     230/ 23/ 26 1012.5

$$
&&




USA.gov is the U.S. government's official web portal to all federal, state and local government web resources and services.